TimeAKST,TemperatureF,Dew PointF,Humidity,Sea Level PressureIn,VisibilityMPH,Wind Direction,Wind SpeedMPH,Gust SpeedMPH,PrecipitationIn,Events,Conditions,WindDirDegrees,DateUTC
12:53 AM,-0.9,-6.0,79,30.30,10.0,Calm,Calm,-,N/A,,Partly Cloudy,0,2012-11-30 09:53:00
1:53 AM,1.9,-4.0,76,30.30,10.0,Calm,Calm,-,N/A,,Partly Cloudy,0,2012-11-30 10:53:00
2:53 AM,1.0,-4.0,79,30.30,10.0,Calm,Calm,-,N/A,,Scattered Clouds,0,2012-11-30 11:53:00
3:53 AM,-0.0,-4.0,83,30.29,10.0,Calm,Calm,-,N/A,,Scattered Clouds,0,2012-11-30 12:53:00
4:53 AM,1.9,-2.0,83,30.28,10.0,Calm,Calm,-,N/A,,Scattered Clouds,0,2012-11-30 13:53:00
5:53 AM,3.0,-2.0,80,30.28,10.0,Calm,Calm,-,N/A,,Scattered Clouds,0,2012-11-30 14:53:00
6:53 AM,5.0,-0.0,80,30.28,10.0,Calm,Calm,-,N/A,,Scattered Clouds,0,2012-11-30 15:53:00
7:53 AM,5.0,1.9,87,30.28,10.0,Calm,Calm,-,N/A,,Scattered Clouds,0,2012-11-30 16:53:00
8:53 AM,6.1,3.0,87,30.27,10.0,Calm,Calm,-,N/A,,Mostly Cloudy,0,2012-11-30 17:53:00
9:53 AM,7.0,3.9,87,30.26,10.0,Calm,Calm,-,N/A,,Mostly Cloudy,0,2012-11-30 18:53:00
10:53 AM,3.9,1.0,88,30.25,10.0,Calm,Calm,-,N/A,,Scattered Clouds,0,2012-11-30 19:53:00
11:53 AM,5.0,1.9,87,30.24,10.0,Calm,Calm,-,N/A,,Scattered Clouds,0,2012-11-30 20:53:00
12:53 PM,7.0,3.0,84,30.22,10.0,Calm,Calm,-,N/A,,Scattered Clouds,0,2012-11-30 21:53:00
1:53 PM,7.0,3.0,84,30.21,10.0,Calm,Calm,-,N/A,,Mostly Cloudy,0,2012-11-30 22:53:00
2:53 PM,10.9,6.1,81,30.20,10.0,Calm,Calm,-,N/A,,Mostly Cloudy,0,2012-11-30 23:53:00
3:38 PM,12.2,8.6,85,30.19,2.5,East,3.5,-,N/A,,Overcast,90,2012-12-01 00:38:00
3:39 PM,12.2,8.6,85,30.19,10.0,East,3.5,-,N/A,,Overcast,90,2012-12-01 00:39:00
3:53 PM,14.0,8.1,77,30.19,10.0,East,4.6,-,N/A,,Overcast,80,2012-12-01 00:53:00
4:53 PM,14.0,9.0,80,30.18,10.0,Calm,Calm,-,N/A,,Overcast,0,2012-12-01 01:53:00
5:53 PM,14.0,9.0,80,30.17,10.0,Calm,Calm,-,N/A,,Overcast,0,2012-12-01 02:53:00
6:53 PM,12.9,10.0,88,30.16,10.0,Calm,Calm,-,N/A,,Overcast,0,2012-12-01 03:53:00
7:53 PM,14.0,9.0,80,30.14,10.0,Calm,Calm,-,N/A,,Overcast,0,2012-12-01 04:53:00
8:53 PM,15.1,10.9,84,30.13,10.0,Calm,Calm,-,N/A,,Overcast,0,2012-12-01 05:53:00
9:53 PM,16.0,12.0,84,30.11,10.0,East,3.5,-,N/A,,Overcast,100,2012-12-01 06:53:00
10:53 PM,17.1,12.9,84,30.11,10.0,Calm,Calm,-,N/A,,Overcast,0,2012-12-01 07:53:00
11:53 PM,16.0,14.0,92,30.10,10.0,Calm,Calm,-,N/A,,Overcast,0,2012-12-01 08:53:00